sat.trackr.live / text

‹ back to catalog

STARLINK-2076

NORAD 47362 · 2021-005P

PAYLOAD ACTIVE UNKNOWN

§ Identity

Operator
Country
US
Launch date
2021-01-20
Launch site
AFETR
Launch vehicle
Mass (kg)
RCS (m²)

Purposes: comms

External: N2YO · Heavens-Above · Gunter

§ Orbital elements

Epoch: 2026-09-19T12:46:33.085632Z

Period
93.24 min
Inclination
53.1539°
Eccentricity
0.0001541
Mean motion
15.44375203 rev/d
Perigee alt
432.2 km
Apogee alt
434.3 km
Semi-major
6,811.4 km
B*
1.0459e-3
RAAN
233.8206°
Arg perigee
47.4321°
Mean anomaly
312.6815°
Rev number
31,282

§ Raw data

STARLINK-20761 47362U 21005P   26262.53232738  .00048933  00000+0  10459-2 0  99982 47362  53.1539 233.8206 0001541  47.4321 312.6815 15.44375203312822

JSON: /api/v1/satellites/47362 · /tle

For live sub-satellite position, see the globe view (requires WebGL).

§ Visibility from observer

Set your observer location to see the next 7 days of passes ≥ 10°. The values pass through the URL so the page stays shareable.

No JS? Fill the form by hand. The geolocation button needs JavaScript.